www.pogodaiklimat.ru

Погода и климат >> Архив погоды >> Франция >> Л’Иль-Рус


ПОГОДА в Л’Иль-Русе

  • Прогноз погоды в Л’Иль-Русе
  • Монитор погоды в Л’Иль-Русе

АРХИВ ПОГОДЫ в Л’Иль-Русе

Время (UTC), дата Ветер
(напр.,м/с)
 
Видим.   Явления Облачность Т
(С)
Тd
(С)
f
(%)
Тe
(С)
Тes
(С)
Комфортность P
(гПа)
Po
(гПа)
Тmin
(С)
Tmax
(С)
R
(мм)
R24
(мм)
S
(см)
22 13.06 З 3-4
{4}
н/о н/о +20.4 +15.8 75 +24 +24 комфорт 1013.5 996.7
23 13.06 З 1-1
{3}
н/о н/о +21.3 +15.8 71 +25 +25 комфорт 1013.6 996.8
00 14.06 В 1-2
{2}
н/о н/о +20.6 +15.6 73 +25 +25 комфорт 1013.0 996.2
01 14.06 ЮЗ 1-1
{2}
н/о н/о +19.8 +17.0 84 +23 +23 комфорт 1012.4 995.6
02 14.06 З 3-4
{4}
н/о н/о +19.5 +16.2 81 +22 +22 комфорт 1012.2 995.4
03 14.06 З 2-3
{5}
н/о н/о +20.6 +15.2 71 +24 +24 комфорт 1012.0 995.2
04 14.06 ЮВ 1-2
{2}
н/о н/о +23.7 +13.6 53 +26 +26 жарко 1011.6 995.0
05 14.06 З 1-1
{2}
н/о н/о +23.2 +13.9 56 +27 +27 душно 1011.1 994.5
06 14.06 Ю 1
{5}
н/о н/о +22.1 +15.4 66 +26 +26 душно 1010.6 993.9 +18.7 +23.8
07 14.06 В 1-2
{2}
н/о н/о +25.7 +13.5 47 +28 +28 жарко 1010.3 993.8
08 14.06 ЮВ 2-4
{4}
н/о н/о +27.3 +16.0 50 +31 +31 душно 1009.9 993.5
09 14.06 ЮВ 2-4
{5}
20 км 5/0
[Ci]
+30.3 +13.1 35 +32 +43 жарко 1009.5 993.3
10 14.06 ЮВ 2-4
{4}
н/о н/о +34.5 +13.3 28 +35 +35 очень
жарко
1009.0 993.0
11 14.06 З 2-3
{6}
н/о н/о +27.8 +13.0 40 +29 +29 жарко 1010.0 993.6
12 14.06 З 2-3
{3}
15 км 10/0
[As trans]
+32.8 +11.3 27 +33 +41 жарко 1009.7 993.6
13 14.06 СВ 2-2
{3}
н/о н/о +33.9 +9.9 23 +33 +33 жарко 1009.0 993.0
14 14.06 З 3-4
{5}
н/о н/о +33.7 +9.7 23 +33 +33 жарко 1009.5 993.4
15 14.06 З 4-7
{7}
н/о н/о +28.0 +14.3 43 +30 +30 жарко 1010.3 994.0
16 14.06 З 4-6
{7}
н/о н/о +24.0 +16.8 64 +28 +28 душно 1010.8 994.2
17 14.06 В 2-3
{6}
н/о н/о +25.2 +16.6 59 +29 +29 душно 1011.1 994.6
18 14.06 С 1-2
{4}
н/о н/о +23.4 +17.2 68 +29 +29 душно 1012.4 995.8 +21.8 +35.7
19 14.06 СВ 2-3
{4}
н/о н/о +21.8 +17.6 77 +26 +26 душно 1013.2 996.5
20 14.06 ЮВ 2-3
{3}
н/о н/о +21.1 +17.7 81 +25 +25 комфорт 1013.8 997.0
21 14.06 В 2-3
{4}
н/о н/о +21.0 +18.2 84 +26 +26 душно 1014.0 997.2
22 14.06 В 2-3
{4}
н/о н/о +20.0 +18.8 93 +24 +24 комфорт 1015.0 998.2
23 14.06 В 1-2
{2}
н/о н/о +19.9 +18.7 93 +24 +24 комфорт 1014.6 997.8
00 15.06 ЮЗ 1-1
{2}
н/о н/о +19.8 +18.6 93 +24 +24 комфорт 1014.5 997.7
01 15.06 ЮВ 1-1
{2}
н/о н/о +19.8 +19.0 95 +24 +24 комфорт 1014.6 997.8
02 15.06 штиль 0-1
{2}
н/о н/о +19.7 +18.7 94 +22 +22 комфорт 1014.6 997.8
03 15.06 З 2-5
{5}
н/о н/о +19.2 +17.9 92 +22 +22 комфорт 1015.0 998.1
04 15.06 З 4-6
{7}
н/о н/о +18.7 +17.2 91 +20 +20 1015.1 998.2
05 15.06 З 4-6
{7}
н/о н/о +18.9 +16.9 88 +20 +20 1015.4 998.5
06 15.06 З 3
{12}
н/о н/о +19.3 +15.6 79 +21 +21 комфорт 1016.0 999.1 +18.6 +23.4
07 15.06 З 2-5
{5}
н/о н/о +20.6 +16.2 76 +24 +24 комфорт 1016.1 999.3
08 15.06 З 3-5
{5}
н/о н/о +21.6 +15.4 68 +25 +25 комфорт 1016.3 999.5
09 15.06 З 4-5
{6}
н/о н/о +21.7 +16.4 72 +26 +26 душно 1016.4 999.6
10 15.06 З 3-5
{5}
н/о н/о +21.8 +17.2 75 +26 +26 душно 1016.6 999.8
11 15.06 З 3-5
{6}
н/о н/о +22.9 +17.8 73 +28 +28 душно 1016.8 1000.1
12 15.06 З 3-5
{5}
н/о н/о +22.2 +17.8 76 +27 +27 душно 1016.7 1000.0
13 15.06 З 3-5
{5}
н/о н/о +22.3 +17.9 76 +27 +27 душно 1016.6 999.9
14 15.06 З 3-4
{5}
н/о н/о +22.6 +16.8 70 +27 +27 душно 1016.2 999.5
15 15.06 З 2-3
{4}
н/о н/о +23.0 +17.2 70 +28 +28 душно 1016.3 999.6
16 15.06 СЗ 2-3
{5}
н/о н/о +23.1 +18.4 75 +29 +29 очень
душно
1015.8 999.1
17 15.06 СЗ 1-2
{3}
н/о н/о +22.6 +17.3 72 +27 +27 душно 1015.5 998.8
18 15.06 З 2-3
{3}
н/о н/о +21.4 +17.0 76 +25 +25 комфорт 1015.6 998.8 +19.4 +23.5
19 15.06 З 2-3
{4}
н/о н/о +19.6 +18.1 91 +23 +23 комфорт 1015.9 999.0
20 15.06 З 3-4
{4}
н/о н/о +19.4 +18.7 96 +22 +22 комфорт 1016.0 999.1
21 15.06 З 3-5
{5}
н/о н/о +19.2 +18.0 93 +21 +21 комфорт 1016.6 999.7
22 15.06 З 2-4
{5}
н/о н/о +19.1 +17.4 90 +21 +21 комфорт 1017.0 1000.1
23 15.06 ЮЗ 2-3
{4}
н/о н/о +18.6 +17.3 92 +20 +20 1016.5 999.6
00 16.06 З 2-3
{3}
н/о н/о +18.4 +17.2 93 +20 +20 1016.5 999.5
01 16.06 З 1-2
{4}
н/о н/о +18.3 +16.8 91 +20 +20 1016.2 999.2
02 16.06 ЮВ 2-2
{2}
н/о н/о +18.1 +16.4 90 +19 +19 1015.6 998.6
03 16.06 ЮВ 2-2
{2}
н/о н/о +18.1 +15.9 87 +19 +19 1015.4 998.4
04 16.06 ЮВ 1-1
{2}
н/о н/о +17.9 +16.2 90 +20 +20 1015.4 998.4
05 16.06 СЗ 1-1
{1}
н/о н/о +18.6 +16.6 88 +21 +21 комфорт 1015.7 998.8
06 16.06 С 1
{3}
н/о н/о +19.5 +17.5 88 +23 +23 комфорт 1016.0 999.1 +17.8 +21.5
07 16.06 СВ 2-2
{3}
н/о н/о +19.9 +16.9 83 +23 +23 комфорт 1016.3 999.4
08 16.06 СВ 2-3
{3}
н/о н/о +21.4 +16.1 72 +25 +25 комфорт 1016.0 999.2
09 16.06 СВ 2-3
{4}
н/о н/о +20.4 +17.0 81 +24 +24 комфорт 1016.4 999.6
10 16.06 СВ 2-3
{3}
н/о н/о +21.3 +17.7 80 +25 +25 комфорт 1016.5 999.7
11 16.06 СВ 2-3
{3}
н/о н/о +21.4 +16.6 74 +25 +25 комфорт 1016.3 999.5
12 16.06 СВ 2-3
{3}
н/о н/о +22.0 +16.0 69 +26 +26 душно 1015.9 999.1
13 16.06 СЗ 2-4
{4}
н/о н/о +23.4 +17.6 70 +29 +29 душно 1015.7 999.0
14 16.06 З 3-4
{5}
н/о н/о +23.0 +18.3 75 +29 +29 очень
душно
1015.6 998.9
15 16.06 З 3-4
{4}
н/о н/о +22.2 +17.6 75 +27 +27 душно 1015.6 998.9
16 16.06 З 3-4
{4}
н/о н/о +22.0 +17.8 77 +27 +27 душно 1015.3 998.6
17 16.06 З 3-4
{5}
н/о н/о +21.1 +17.1 78 +25 +25 комфорт 1015.1 998.3
18 16.06 З 2-4
{4}
н/о н/о +20.7 +17.7 83 +25 +25 комфорт 1014.8 998.0 +19.3 +23.9
19 16.06 З 1-1
{3}
н/о н/о +19.7 +16.7 83 +23 +23 комфорт 1014.7 997.8
20 16.06 В 1-1
{1}
н/о н/о +18.8 +16.6 87 +22 +22 комфорт 1015.2 998.3
21 16.06 В 1-2
{2}
н/о н/о +18.4 +16.7 90 +20 +20 1015.3 998.4
22 16.06 З 2-3
{3}
н/о н/о +18.3 +17.3 94 +19 +19 1015.3 998.4
23 16.06 ЮВ 1-2
{4}
н/о н/о +18.0 +17.0 94 +19 +19 1015.5 998.5
00 17.06 ЮВ 1-2
{2}
н/о н/о +17.7 +16.9 95 +19 +19 1015.3 998.3
01 17.06 ЮВ 1-1
{2}
н/о н/о +17.6 +16.8 95 +19 +19 1015.2 998.2
02 17.06 В 1-2
{2}
н/о н/о +17.5 +16.9 96 +19 +19 1015.0 998.0
03 17.06 В 2-2
{2}
н/о н/о +17.3 +16.7 96 +18 +18 1014.9 997.9
04 17.06 ЮВ 3-3
{3}
н/о н/о +16.7 +16.1 96 +17 +17 1014.8 997.8
05 17.06 В 2-2
{3}
н/о н/о +17.2 +16.6 96 +18 +18 1015.3 998.3
06 17.06 В 2
{6}
10 км 10/10 480 м
[Cu Sc]
+18.6 +16.6 88 +20 +20 1015.5 998.6 +16.5 +20.9
07 17.06 В 2-3
{3}
н/о н/о +19.9 +16.7 82 +23 +23 комфорт 1015.6 998.7
08 17.06 СВ 2-4
{4}
н/о н/о +20.1 +16.7 81 +23 +23 комфорт 1015.7 998.8
09 17.06 СВ 2-3
{4}
н/о н/о +20.1 +16.9 82 +24 +24 комфорт 1016.0 999.1
10 17.06 СВ 2-3
{3}
н/о н/о +20.2 +16.6 80 +24 +24 комфорт 1015.9 999.0
11 17.06 СВ 2-3
{3}
н/о н/о +20.5 +16.7 79 +24 +24 комфорт 1015.7 998.9
12 17.06 СВ 2-3
{4}
15 км 4/4 1500 м
[Cu Sc]
+21.2 +17.0 77 +25 +36 комфорт 1015.3 998.5
13 17.06 СВ 2-3
{3}
н/о н/о +22.0 +17.6 76 +27 +27 душно 1015.0 998.3
14 17.06 СВ 2-2
{4}
н/о н/о +22.0 +16.0 69 +26 +26 душно 1014.7 998.0
15 17.06 С 1-2
{3}
н/о н/о +23.4 +17.8 71 +29 +29 душно 1014.3 997.7
16 17.06 З 2-2
{5}
н/о н/о +24.3 +17.5 66 +28 +28 душно 1013.7 997.1
17 17.06 З 2-3
{3}
н/о н/о +22.9 +17.4 71 +28 +28 душно 1014.1 997.4
18 17.06 З 1-2
{2}
н/о н/о +22.4 +17.5 74 +27 +27 душно 1014.1 997.4 +18.6 +24.5
19 17.06 З 2-2
{3}
н/о н/о +20.2 +17.0 82 +24 +24 комфорт 1014.6 997.8
20 17.06 ЮЗ 1-1
{2}
н/о н/о +19.8 +17.2 85 +24 +24 комфорт 1014.9 998.0
21 17.06 В 1-1
{2}
н/о н/о +19.5 +16.7 84 +23 +23 комфорт 1015.0 998.1
22 17.06 ЮЗ 1-1
{3}
н/о н/о +20.0 +16.2 79 +24 +24 комфорт 1015.2 998.3
23 17.06 СЗ 1-1
{1}
н/о н/о +19.3 +16.3 83 +23 +23 комфорт 1015.1 998.2
00 18.06 ЮВ 1-1
{1}
н/о н/о +19.5 +15.6 78 +23 +23 комфорт 1015.2 998.3
01 18.06 СЗ 1-1
{2}
н/о н/о +20.9 +15.2 70 +26 +26 душно 1014.6 997.8
02 18.06 СВ 1-1
{1}
н/о н/о +19.8 +16.6 82 +24 +24 комфорт 1014.8 997.9
03 18.06 С 1-1
{1}
н/о н/о +22.1 +5.9 35 +23 +23 комфорт 1014.4 997.6
04 18.06 Ю 1-1
{1}
н/о н/о +22.1 +7.5 39 +23 +23 комфорт 1014.3 997.5
05 18.06 З 3-4
{4}
н/о н/о +21.1 +9.0 46 +22 +22 комфорт 1014.7 997.9
06 18.06 З 3
{8}
22 км ясно +19.9 +17.5 86 +23 +26 комфорт 1015.0 998.2 +18.9 +22.7
07 18.06 З 2-3
{3}
н/о н/о +20.7 +17.3 81 +25 +25 комфорт 1015.3 998.5
08 18.06 З 2-3
{3}
н/о н/о +21.5 +13.4 60 +24 +24 комфорт 1015.4 998.6
09 18.06 З 2-3
{3}
30 км 3/3 1500 м
[Cu hum Ci fib]
+23.7 +10.0 42 +25 +36 комфорт 1015.3 998.6
10 18.06 З 2-3
{3}
н/о н/о +24.6 +4.3 27 +24 +24 комфорт 1015.5 998.8
11 18.06 З 2-3
{3}
н/о н/о +25.6 +6.7 30 +25 +25 комфорт 1015.2 998.6
12 18.06 З 3-4
{4}
30 км 3/3 1500 м
[Cu hum Ci fib]
+23.7 +17.9 70 +28 +39 душно 1015.2 998.6
13 18.06 З 3-4
{4}
н/о н/о +24.6 +17.6 65 +29 +29 душно 1014.9 998.3
14 18.06 З 3-4
{4}
н/о н/о +24.4 +16.1 60 +28 +28 душно 1014.8 998.2
15 18.06 З 3-5
{5}
28 км 3/3 1500 м
[Cu med, cong Ac lent]
+26.2 +9.9 36 +27 +33 жарко 1014.4 997.9
16 18.06 З 3-4
{5}
н/о н/о +26.1 +8.1 32 +26 +26 жарко 1014.0 997.5
17 18.06 З 2-4
{4}
н/о н/о +25.5 +7.6 32 +26 +26 жарко 1014.1 997.5
18 18.06 З 3
{9}
28 км 1/0
[Ac cast]
+24.0 +13.5 52 +26 +27 жарко 1014.5 997.9 +19.7 +26.7
19 18.06 З 2-3
{4}
н/о н/о +21.7 +16.2 71 +25 +25 комфорт 1014.6 997.9
20 18.06 З 2-2
{3}
н/о н/о +21.5 +11.8 54 +24 +24 комфорт 1015.2 998.4
21 18.06 ЮВ 2-2
{2}
н/о н/о +21.4 +11.7 54 +23 +23 комфорт 1015.0 998.2
22 18.06 ЮВ 1-1
{2}
н/о н/о +21.9 +8.4 42 +23 +23 комфорт 1014.8 998.0
23 18.06 З 1-1
{1}
н/о н/о +22.2 +8.0 40 +23 +23 комфорт 1014.7 997.9
00 19.06 ЮЗ 1-1
{1}
н/о н/о +22.4 +3.5 29 +22 +22 комфорт 1014.3 997.5
01 19.06 СЗ 1-1
{1}
н/о н/о +22.4 +4.0 30 +22 +22 комфорт 1014.2 997.4
02 19.06 З 1-1
{1}
н/о н/о +22.2 +4.7 32 +22 +22 комфорт 1014.0 997.2
03 19.06 З 2-2
{2}
30 км ясно +20.6 +7.6 43 +22 +22 комфорт 1014.1 997.2
04 19.06 З 2-2
{3}
н/о н/о +20.3 +12.0 59 +23 +23 комфорт 1014.0 997.2
05 19.06 З 1-2
{2}
н/о н/о +21.9 +6.5 37 +23 +23 комфорт 1014.2 997.4
06 19.06 З 1
{4}
н/о н/о +22.1 +7.9 40 +23 +23 комфорт 1014.4 997.6 +19.7 +23.9
07 19.06 штиль 0-1
{2}
н/о н/о +23.8 +9.4 40 +25 +25 комфорт 1014.6 997.9
08 19.06 З 2-3
{3}
н/о н/о +22.3 +12.3 53 +25 +25 комфорт 1014.5 997.8
09 19.06 З 2-3
{3}
н/о н/о +22.9 +13.4 55 +26 +26 жарко 1014.5 997.8
10 19.06 З 2-2
{3}
н/о н/о +24.3 +10.9 43 +26 +26 жарко 1014.3 997.7
11 19.06 З 2-4
{4}
н/о н/о +24.9 +15.2 55 +28 +28 жарко 1014.6 998.0
12 19.06 З 4-5
{5}
н/о н/о +24.7 +17.2 63 +29 +29 душно 1014.7 998.1
13 19.06 З 3-5
{5}
н/о н/о +24.6 +17.6 65 +29 +29 душно 1014.4 997.8
14 19.06 СЗ 2-3
{5}
н/о н/о +24.4 +13.9 52 +27 +27 жарко 1014.4 997.8
15 19.06 С 1-2
{3}
н/о н/о +26.1 +8.1 32 +26 +26 жарко 1013.9 997.4
16 19.06 С 1-2
{2}
н/о н/о +26.0 +11.7 41 +27 +27 жарко 1013.3 996.8
17 19.06 СЗ 1-2
{2}
н/о н/о +27.1 +5.9 26 +26 +26 жарко 1013.1 996.6
18 19.06 З 1
{4}
30 км 1/0
[Ci fib]
+25.0 +6.7 31 +25 +26 комфорт 1013.3 996.7 +22.1 +27.3
19 19.06 ЮВ 2-2
{2}
н/о н/о +23.2 +8.5 39 +24 +24 комфорт 1013.2 996.5
20 19.06 ЮВ 1-2
{2}
н/о н/о +23.1 +7.2 36 +24 +24 комфорт 1013.5 996.8
21 19.06 З 2-2
{2}
н/о н/о +22.3 +8.4 41 +24 +24 комфорт 1014.1 997.3
22 19.06 ЮЗ 2-3
{4}
н/о н/о +21.6 +7.8 41 +23 +23 комфорт 1014.2 997.4
23 19.06 С 1-1
{2}
н/о н/о +21.6 +8.5 43 +23 +23 комфорт 1014.0 997.2
00 20.06 З 1-2
{2}
н/о н/о +20.8 +10.3 51 +24 +24 комфорт 1013.9 997.1
01 20.06 З 1-2
{2}
н/о н/о +21.3 +7.9 42 +22 +22 комфорт 1013.6 996.8
02 20.06 Ю 1-1
{1}
н/о н/о +21.4 +7.6 41 +22 +22 комфорт 1013.5 996.7
03 20.06 ЮВ 1-2
{2}
н/о н/о +21.5 +6.6 38 +22 +22 комфорт 1013.3 996.5
04 20.06 В 1-1
{2}
н/о н/о +21.8 +6.1 36 +22 +22 комфорт 1013.5 996.7
05 20.06 В 1-1
{1}
н/о н/о +22.9 +7.4 37 +24 +24 комфорт 1013.3 996.6
06 20.06 В 1
{4}
н/о н/о +24.6 +8.9 37 +25 +25 комфорт 1013.1 996.5 +20.4 +25.5
07 20.06 С 1-2
{2}
н/о н/о +25.0 +10.8 41 +26 +26 жарко 1013.3 996.7
08 20.06 З 2-3
{3}
н/о н/о +21.8 +11.2 51 +24 +24 комфорт 1013.6 996.8
09 20.06 СЗ 2-3
{3}
н/о н/о +23.5 +8.4 38 +24 +24 комфорт 1013.7 997.0
10 20.06 СЗ 2-3
{3}
н/о н/о +24.4 +14.2 53 +27 +27 жарко 1013.9 997.3
11 20.06 С 2-3
{3}
н/о н/о +24.4 +14.5 54 +27 +27 жарко 1014.0 997.4
12 20.06 С 2-3
{4}
н/о н/о +24.5 +16.2 60 +28 +28 душно 1013.9 997.3
13 20.06 С 2-3
{4}
н/о н/о +24.4 +16.4 61 +28 +28 душно 1013.8 997.2
15 20.06 СВ 1-3
{3}
н/о н/о +24.7 +10.9 42 +26 +26 жарко 1013.3 996.7
16 20.06 СВ 2-3
{3}
н/о н/о +24.2 +13.7 52 +26 +26 жарко 1012.7 996.1
17 20.06 В 2-2
{3}
н/о н/о +24.4 +14.2 53 +27 +27 жарко 1012.4 995.8
18 20.06 В 1-2
{2}
н/о н/о +23.8 +15.0 58 +27 +27 жарко 1012.5 995.9 +21.7 +26.3
19 20.06 ЮВ 1-2
{2}
н/о н/о +22.9 +14.5 59 +27 +27 душно 1012.8 996.1
20 20.06 ЮВ 2-2
{2}
н/о н/о +23.1 +12.1 50 +26 +26 жарко 1013.4 996.7

 

Местоположение метеостанции Л’Иль-Рус (Франция): широта 42.63 долгота 8.92 высота над уровнем моря 153 м.

В архиве по умолчанию представлена погода в Л’Иль-Русе за последнюю неделю. Архивные данные за месяц целиком и за предыдущие месяцы, начиная с января 2011 года, Вы можете получить, выбрав интересующий диапазон дат из раскрывающегося списка и нажав кнопку "Ввод!".


*Определитесь, кто Вы:
робот инопланетянин человек

Внимание! Время в таблицах - всемирное. Для получения местного времени необходимо прибавить поправку, которая равна 1 ч.

Смотрите также архив погоды в соседних городах и на ближайших метеорологических станциях:

Погода в Кальви (Франция) (15 км)
Погода в Бастии (Франция) (47 км)
Погода на Мысе Сагро (Франция) (50 км)
Погода на Мысе Корсика (Франция) (54 км)
Погода в Алистро (Франция) (64 км)
Погода в Аяччо (Франция) (80 км)
Погода в Ла Парате (Франция) (83 км)
Погода в Соленцаре (Франция) (88 км)
Погода на Mонте Каламита (Италия) (122 км)
Погода в Фигари (Франция) (127 км)

Пояснения к столбцам:

Ветер - указаны скорость ветра в м/с - средняя за 10 мин, порывы в срок и между сроками (в фигурных скобках) и направление, откуда дует ветер: С - северный, СВ - северо-восточный, В - восточный, ЮВ - юго-восточный, Ю - южный, ЮЗ - юго-западный, З - западный, СЗ - северо-западный.
Видимость - горизонтальная дальность видимости в метрах или километрах. При видимости от 1 до 10 км при отсутствии осадков обычно наблюдается дымка, при ухудшении видимости до 1 км и менее - туман. В сухую погоду видимость может ухудшаться дымом, пылью или мглою.
Явления - указаны атмосферные явления, наблюдавшиеся в срок или в последний час перед сроком; фигурными скобками обозначены явления, наблюдавшиеся между сроками (за 1-3 часа до срока); квадратными скобками обозначены град или гололедные отложения с указанием их диаметра в мм.
Облачность - указаны через наклонную черту общая и нижняя облачность в баллах и высота нижней границы облаков в метрах; квадратными скобками обозначены формы облаков: Ci - перистые, Cs - перисто-слоистые, Cc - перисто-кучевые, Ac - высококучевые, As - высокослоистые, Sc - слоисто-кучевые, Ns - слоисто-дождевые, Cu - кучевые, Cb - кучево-дождевые. Подробнее классификацию облаков см. в Атласе облаков (PDF).
T - Температура воздуха - температура, измеренная на высоте 2 м над землей.
Td - Температура точки росы - температура, при понижении до которой содержащийся в воздухе водяной пар достигнет насыщения.
f - Относительная влажность воздуха - влажноcть воздуха, измеренная на высоте 2 м над землей.
Te - Эффективная температура - температура, которую ощущает одетый по сезону человек в тени. Характеристика душности погоды. При расчете учитывается влияние влажности воздуха и скорости ветра на теплоощущения человека.
Tes - Эффективная температура на солнце - температура, которую ощущает человек, с поправкой на солнечный нагрев. Характеристика знойности погоды. Зависит от высоты солнца над горизонтом, облачности и скорости ветра. Ночью, в пасмурную погоду, а также при ветре 12 м/с и более поправка равна нулю.
P - Атмосферное давление - приведенное к уровню моря атмосферное давление.
Po - Атмосферное давление - измеренное на уровне метеостанции атмосферное давление.
Tmin - Минимальная температура - минимум температуры воздуха на высоте 2 м над землей.
Tmax - Максимальная температура - максимум температуры воздуха на высоте 2 м над землей.
R - Количество осадков - Количество выпавших осадков за период времени, мм. При наведении курсора мыши на число - период времени, за который выпало указанное количество осадков.
R24 - Количество осадков - Количество выпавших осадков за 24 часа, мм.
S - Снежный покров - Высота снежного покрова, см. При наведении курсора мыши на число - состояние снежного покрова и степень покрытия местности в баллах.